Time,TemperatureF,DewpointF,PressureIn,WindDirection,WindDirectionDegrees,WindSpeedMPH,WindSpeedGustMPH,Humidity,HourlyPrecipIn,Conditions,Clouds,dailyrainin,SoftwareType,DateUTC
2013-02-12 00:00:00,42.6,37.2,30.03,SE,136,0.0,0.0,81,0.00,,,0.00,Wunderground v.1.15,2013-02-12 08:00:00,
2013-02-12 00:05:00,42.5,37.1,30.03,SE,136,0.0,0.0,81,0.00,,,0.00,Wunderground v.1.15,2013-02-12 08:05:00,
2013-02-12 00:16:00,42.3,37.2,30.03,SE,136,0.0,0.0,82,0.00,,,0.00,Wunderground v.1.15,2013-02-12 08:16:00,
2013-02-12 00:26:00,42.0,36.9,30.03,SE,136,0.0,0.0,82,0.00,,,0.00,Wunderground v.1.15,2013-02-12 08:26:00,
2013-02-12 00:36:00,41.8,36.7,30.03,SE,136,0.0,0.0,82,0.00,,,0.00,Wunderground v.1.15,2013-02-12 08:36:00,
2013-02-12 00:46:00,41.5,36.7,30.03,SE,136,0.0,0.0,83,0.00,,,0.00,Wunderground v.1.15,2013-02-12 08:46:00,
2013-02-12 00:56:00,41.3,36.5,30.03,SE,136,0.0,0.0,83,0.00,,,0.00,Wunderground v.1.15,2013-02-12 08:56:00,
2013-02-12 01:01:00,41.2,36.4,30.03,SE,136,0.0,0.0,83,0.00,,,0.00,Wunderground v.1.15,2013-02-12 09:01:00,
2013-02-12 01:11:00,41.0,36.5,30.03,SE,136,0.0,0.0,84,0.00,,,0.00,Wunderground v.1.15,2013-02-12 09:11:00,
2013-02-12 01:21:00,40.9,36.4,30.03,SE,136,0.0,0.0,84,0.00,,,0.00,Wunderground v.1.15,2013-02-12 09:21:00,
2013-02-12 01:26:00,40.8,36.6,30.03,SE,136,0.0,0.0,85,0.00,,,0.00,Wunderground v.1.15,2013-02-12 09:26:00,
2013-02-12 01:36:00,40.7,36.5,30.04,SE,136,0.0,0.0,85,0.00,,,0.00,Wunderground v.1.15,2013-02-12 09:36:00,
2013-02-12 01:46:00,40.6,36.4,30.04,SE,136,0.0,0.0,85,0.00,,,0.00,Wunderground v.1.15,2013-02-12 09:46:00,
2013-02-12 01:56:00,40.5,36.6,30.04,SE,136,0.0,0.0,86,0.00,,,0.00,Wunderground v.1.15,2013-02-12 09:56:00,
2013-02-12 02:01:00,40.4,36.5,30.04,SE,136,0.0,0.0,86,0.00,,,0.00,Wunderground v.1.15,2013-02-12 10:01:00,
2013-02-12 02:11:00,40.3,36.4,30.05,SE,136,0.0,0.0,86,0.00,,,0.00,Wunderground v.1.15,2013-02-12 10:11:00,
2013-02-12 02:20:00,40.1,36.2,30.05,SE,136,0.0,0.0,86,0.00,,,0.00,Wunderground v.1.15,2013-02-12 10:20:00,
2013-02-12 02:31:00,39.9,36.1,30.05,SE,136,0.0,0.0,86,0.00,,,0.00,Wunderground v.1.15,2013-02-12 10:31:00,
2013-02-12 02:41:00,39.6,35.8,30.04,SE,136,0.0,0.0,86,0.00,,,0.00,Wunderground v.1.15,2013-02-12 10:41:00,
2013-02-12 02:50:00,39.5,35.7,30.04,SE,136,0.0,0.0,86,0.00,,,0.00,Wunderground v.1.15,2013-02-12 10:50:00,
2013-02-12 02:56:00,39.4,35.6,30.04,SE,136,0.0,0.0,86,0.00,,,0.00,Wunderground v.1.15,2013-02-12 10:56:00,
2013-02-12 03:01:00,39.4,35.6,30.04,SE,136,0.0,0.0,86,0.00,,,0.00,Wunderground v.1.15,2013-02-12 11:01:00,
2013-02-12 03:10:00,39.2,35.7,30.04,SE,136,0.0,0.0,87,0.00,,,0.00,Wunderground v.1.15,2013-02-12 11:10:00,
2013-02-12 03:20:00,39.1,35.6,30.04,SE,136,0.0,0.0,87,0.00,,,0.00,Wunderground v.1.15,2013-02-12 11:20:00,
2013-02-12 03:25:00,39.1,35.6,30.04,SE,136,0.0,0.0,87,0.00,,,0.00,Wunderground v.1.15,2013-02-12 11:25:00,
2013-02-12 03:35:00,39.0,35.7,30.04,SE,136,0.0,0.0,88,0.00,,,0.00,Wunderground v.1.15,2013-02-12 11:35:00,
2013-02-12 03:45:00,39.0,35.7,30.04,SE,136,0.0,0.0,88,0.00,,,0.00,Wunderground v.1.15,2013-02-12 11:45:00,
2013-02-12 03:55:00,38.8,35.6,30.04,SE,136,0.0,0.0,88,0.00,,,0.00,Wunderground v.1.15,2013-02-12 11:55:00,
2013-02-12 04:00:00,38.7,35.5,30.03,SE,136,0.0,0.0,88,0.00,,,0.00,Wunderground v.1.15,2013-02-12 12:00:00,
2013-02-12 04:05:00,38.6,35.4,30.03,SE,136,0.0,0.0,88,0.00,,,0.00,Wunderground v.1.15,2013-02-12 12:05:00,
2013-02-12 04:15:00,38.4,34.9,30.04,SE,136,0.0,0.0,87,0.00,,,0.00,Wunderground v.1.15,2013-02-12 12:15:00,
2013-02-12 04:25:00,38.3,35.1,30.05,SE,136,0.0,0.0,88,0.00,,,0.00,Wunderground v.1.15,2013-02-12 12:25:00,
2013-02-12 04:35:00,38.1,34.9,30.05,SE,136,0.0,0.0,88,0.00,,,0.00,Wunderground v.1.15,2013-02-12 12:35:00,
2013-02-12 04:45:00,38.0,34.8,30.05,SE,136,0.0,0.0,88,0.00,,,0.00,Wunderground v.1.15,2013-02-12 12:45:00,
2013-02-12 04:50:00,37.9,34.7,30.06,SE,136,0.0,0.0,88,0.00,,,0.00,Wunderground v.1.15,2013-02-12 12:50:00,
2013-02-12 05:00:00,37.8,34.6,30.06,SE,136,0.0,0.0,88,0.00,,,0.00,Wunderground v.1.15,2013-02-12 13:00:00,
2013-02-12 05:10:00,37.7,34.5,30.06,SE,136,0.0,0.0,88,0.00,,,0.00,Wunderground v.1.15,2013-02-12 13:10:00,
2013-02-12 05:16:00,37.7,34.5,30.06,SE,136,0.0,0.0,88,0.00,,,0.00,Wunderground v.1.15,2013-02-12 13:16:00,
2013-02-12 05:26:00,37.5,34.3,30.07,SE,136,0.0,0.0,88,0.00,,,0.00,Wunderground v.1.15,2013-02-12 13:26:00,
2013-02-12 05:36:00,37.3,34.1,30.07,SE,136,0.0,0.0,88,0.00,,,0.00,Wunderground v.1.15,2013-02-12 13:36:00,
2013-02-12 05:46:00,37.3,34.1,30.08,SE,136,0.0,0.0,88,0.00,,,0.00,Wunderground v.1.15,2013-02-12 13:46:00,
2013-02-12 05:56:00,37.3,34.4,30.08,SE,136,0.0,0.0,89,0.00,,,0.00,Wunderground v.1.15,2013-02-12 13:56:00,
2013-02-12 06:01:00,37.3,34.4,30.08,SE,136,0.0,0.0,89,0.00,,,0.00,Wunderground v.1.15,2013-02-12 14:01:00,
2013-02-12 06:11:00,37.2,34.3,30.08,SE,136,0.0,0.0,89,0.00,,,0.00,Wunderground v.1.15,2013-02-12 14:11:00,
2013-02-12 06:16:00,37.1,34.2,30.08,SE,136,0.0,0.0,89,0.00,,,0.00,Wunderground v.1.15,2013-02-12 14:16:00,
2013-02-12 06:26:00,36.9,34.0,30.09,SE,136,0.0,0.0,89,0.00,,,0.00,Wunderground v.1.15,2013-02-12 14:26:00,
2013-02-12 06:36:00,36.7,33.5,30.09,SE,136,0.0,0.0,88,0.00,,,0.00,Wunderground v.1.15,2013-02-12 14:36:00,
2013-02-12 06:46:00,36.4,33.2,30.10,SE,136,0.0,0.0,88,0.00,,,0.00,Wunderground v.1.15,2013-02-12 14:46:00,
2013-02-12 06:56:00,36.1,32.9,30.10,SE,136,0.0,0.0,88,0.00,,,0.00,Wunderground v.1.15,2013-02-12 14:56:00,
2013-02-12 07:01:00,36.0,32.8,30.10,SE,136,0.0,0.0,88,0.00,,,0.00,Wunderground v.1.15,2013-02-12 15:01:00,
2013-02-12 07:11:00,35.7,32.5,30.11,SE,136,0.0,0.0,88,0.00,,,0.00,Wunderground v.1.15,2013-02-12 15:11:00,
2013-02-12 07:20:00,35.6,32.7,30.12,SE,136,0.0,0.0,89,0.00,,,0.00,Wunderground v.1.15,2013-02-12 15:20:00,
2013-02-12 07:31:00,35.6,32.7,30.12,SE,136,0.0,0.0,89,0.00,,,0.00,Wunderground v.1.15,2013-02-12 15:31:00,
2013-02-12 07:40:00,35.9,33.3,30.12,SE,136,0.0,0.0,90,0.00,,,0.00,Wunderground v.1.15,2013-02-12 15:40:00,
2013-02-12 07:51:00,36.2,33.5,30.12,SE,136,0.0,0.0,90,0.00,,,0.00,Wunderground v.1.15,2013-02-12 15:51:00,
2013-02-12 08:01:00,36.5,33.8,30.13,SE,136,0.0,0.0,90,0.00,,,0.00,Wunderground v.1.15,2013-02-12 16:01:00,
2013-02-12 08:10:00,36.9,34.5,30.13,SE,136,0.0,0.0,91,0.00,,,0.00,Wunderground v.1.15,2013-02-12 16:10:00,
2013-02-12 08:20:00,38.1,35.7,30.13,SE,136,0.0,0.0,91,0.00,,,0.00,Wunderground v.1.15,2013-02-12 16:20:00,
2013-02-12 08:25:00,38.6,36.2,30.13,SE,136,0.0,0.0,91,0.00,,,0.00,Wunderground v.1.15,2013-02-12 16:25:00,
2013-02-12 08:35:00,39.6,36.9,30.14,SE,136,0.0,0.0,90,0.00,,,0.00,Wunderground v.1.15,2013-02-12 16:35:00,
2013-02-12 08:45:00,40.4,37.4,30.14,SE,136,0.0,0.0,89,0.00,,,0.00,Wunderground v.1.15,2013-02-12 16:45:00,
2013-02-12 08:55:00,41.1,37.8,30.14,SE,136,0.0,0.0,88,0.00,,,0.00,Wunderground v.1.15,2013-02-12 16:55:00,
2013-02-12 09:00:00,41.3,37.4,30.14,SE,136,0.0,0.0,86,0.00,,,0.00,Wunderground v.1.15,2013-02-12 17:00:00,
2013-02-12 09:10:00,42.7,38.8,30.14,SE,136,0.0,0.0,86,0.00,,,0.00,Wunderground v.1.15,2013-02-12 17:10:00,
2013-02-12 09:20:00,44.2,40.0,30.14,SE,136,0.0,0.0,85,0.00,,,0.00,Wunderground v.1.15,2013-02-12 17:20:00,
2013-02-12 09:30:00,45.9,40.1,30.14,SE,136,0.0,0.0,80,0.00,,,0.00,Wunderground v.1.15,2013-02-12 17:30:00,
2013-02-12 09:35:00,44.8,39.3,30.14,SE,136,0.0,0.0,81,0.00,,,0.00,Wunderground v.1.15,2013-02-12 17:35:00,
2013-02-12 09:45:00,46.5,40.3,30.15,SE,136,0.0,0.0,79,0.00,,,0.00,Wunderground v.1.15,2013-02-12 17:45:00,
2013-02-12 09:55:00,46.7,40.9,30.14,SE,136,0.0,0.0,80,0.00,,,0.00,Wunderground v.1.15,2013-02-12 17:55:00,
2013-02-12 10:00:00,47.8,40.9,30.15,SE,136,0.0,0.0,77,0.00,,,0.00,Wunderground v.1.15,2013-02-12 18:00:00,
2013-02-12 10:10:00,49.1,41.5,30.14,NNE,28,0.0,0.0,75,0.00,,,0.00,Wunderground v.1.15,2013-02-12 18:10:00,
2013-02-12 10:16:00,48.9,41.3,30.14,North,9,0.0,0.0,75,0.00,,,0.00,Wunderground v.1.15,2013-02-12 18:16:00,
2013-02-12 10:26:00,49.4,40.7,30.15,North,360,0.0,0.0,72,0.00,,,0.00,Wunderground v.1.15,2013-02-12 18:26:00,
2013-02-12 10:36:00,50.1,41.1,30.14,North,360,0.0,0.0,71,0.00,,,0.00,Wunderground v.1.15,2013-02-12 18:36:00,
2013-02-12 10:46:00,51.8,41.6,30.15,North,5,0.0,1.0,68,0.00,,,0.00,Wunderground v.1.15,2013-02-12 18:46:00,
2013-02-12 10:56:00,52.9,41.0,30.15,NE,53,0.0,1.0,64,0.00,,,0.00,Wunderground v.1.15,2013-02-12 18:56:00,
2013-02-12 11:01:00,53.9,42.0,30.15,NE,51,0.0,0.0,64,0.00,,,0.00,Wunderground v.1.15,2013-02-12 19:01:00,
2013-02-12 11:11:00,53.9,42.4,30.15,East,80,1.0,1.0,65,0.00,,,0.00,Wunderground v.1.15,2013-02-12 19:11:00,
2013-02-12 11:21:00,55.4,43.4,30.15,ENE,75,0.0,0.0,64,0.00,,,0.00,Wunderground v.1.15,2013-02-12 19:21:00,
2013-02-12 11:31:00,56.2,42.1,30.15,ESE,104,0.0,0.0,59,0.00,,,0.00,Wunderground v.1.15,2013-02-12 19:31:00,
2013-02-12 11:41:00,56.7,43.0,30.14,East,97,0.0,0.0,60,0.00,,,0.00,Wunderground v.1.15,2013-02-12 19:41:00,
2013-02-12 11:51:00,56.7,38.3,30.14,East,79,1.0,3.0,50,0.00,,,0.00,Wunderground v.1.15,2013-02-12 19:51:00,
2013-02-12 12:01:00,57.2,40.2,30.14,SE,125,1.0,1.0,53,0.00,,,0.00,Wunderground v.1.15,2013-02-12 20:01:00,
2013-02-12 12:11:00,57.0,39.0,30.14,ENE,70,1.0,3.0,51,0.00,,,0.00,Wunderground v.1.15,2013-02-12 20:11:00,
2013-02-12 12:21:00,58.0,40.0,30.14,NNE,23,1.0,1.0,51,0.00,,,0.00,Wunderground v.1.15,2013-02-12 20:21:00,
2013-02-12 12:30:00,58.3,42.2,30.13,ENE,71,0.0,1.0,55,0.00,,,0.00,Wunderground v.1.15,2013-02-12 20:30:00,
2013-02-12 12:36:00,57.5,40.0,30.13,NE,51,0.0,1.0,52,0.00,,,0.00,Wunderground v.1.15,2013-02-12 20:36:00,
2013-02-12 12:45:00,58.4,39.8,30.13,ENE,73,0.0,0.0,50,0.00,,,0.00,Wunderground v.1.15,2013-02-12 20:45:00,
2013-02-12 12:55:00,58.4,39.8,30.13,SE,142,1.0,1.0,50,0.00,,,0.00,Wunderground v.1.15,2013-02-12 20:55:00,
2013-02-12 13:01:00,58.4,38.8,30.13,ENE,61,1.0,1.0,48,0.00,,,0.00,Wunderground v.1.15,2013-02-12 21:01:00,
2013-02-12 13:10:00,58.6,39.5,30.12,ENE,65,0.0,0.0,49,0.00,,,0.00,Wunderground v.1.15,2013-02-12 21:10:00,
2013-02-12 13:20:00,58.6,39.0,30.12,SE,134,0.0,0.0,48,0.00,,,0.00,Wunderground v.1.15,2013-02-12 21:20:00,
2013-02-12 13:25:00,58.6,39.0,30.11,NNE,24,0.0,0.0,48,0.00,,,0.00,Wunderground v.1.15,2013-02-12 21:25:00,
2013-02-12 13:35:00,59.0,39.9,30.11,ENE,69,0.0,0.0,49,0.00,,,0.00,Wunderground v.1.15,2013-02-12 21:35:00,
2013-02-12 13:45:00,59.0,39.9,30.11,East,94,0.0,1.0,49,0.00,,,0.00,Wunderground v.1.15,2013-02-12 21:45:00,
2013-02-12 13:50:00,59.0,40.4,30.10,East,94,0.0,0.0,50,0.00,,,0.00,Wunderground v.1.15,2013-02-12 21:50:00,
2013-02-12 14:00:00,59.0,40.4,30.10,SE,129,0.0,0.0,50,0.00,,,0.00,Wunderground v.1.15,2013-02-12 22:00:00,
2013-02-12 14:10:00,59.0,40.9,30.09,East,92,0.0,0.0,51,0.00,,,0.00,Wunderground v.1.15,2013-02-12 22:10:00,
2013-02-12 14:15:00,59.0,41.4,30.10,SSE,165,0.0,1.0,52,0.00,,,0.00,Wunderground v.1.15,2013-02-12 22:15:00,
2013-02-12 14:25:00,59.0,39.9,30.09,NE,45,1.0,3.0,49,0.00,,,0.00,Wunderground v.1.15,2013-02-12 22:25:00,
2013-02-12 14:35:00,59.0,40.4,30.09,ESE,107,0.0,1.0,50,0.00,,,0.00,Wunderground v.1.15,2013-02-12 22:35:00,
2013-02-12 14:45:00,59.2,40.6,30.09,ESE,119,1.0,2.0,50,0.00,,,0.00,Wunderground v.1.15,2013-02-12 22:45:00,
2013-02-12 14:55:00,59.3,40.7,30.09,SE,146,0.0,0.0,50,0.00,,,0.00,Wunderground v.1.15,2013-02-12 22:55:00,
2013-02-12 15:00:00,59.4,40.7,30.09,ESE,123,0.0,0.0,50,0.00,,,0.00,Wunderground v.1.15,2013-02-12 23:00:00,
2013-02-12 15:10:00,59.3,40.7,30.09,SE,142,0.0,1.0,50,0.00,,,0.00,Wunderground v.1.15,2013-02-12 23:10:00,
2013-02-12 15:20:00,59.4,40.7,30.09,SSE,168,0.0,0.0,50,0.00,,,0.00,Wunderground v.1.15,2013-02-12 23:20:00,
2013-02-12 15:30:00,59.4,40.7,30.09,ESE,109,0.0,0.0,50,0.00,,,0.00,Wunderground v.1.15,2013-02-12 23:30:00,
2013-02-12 15:40:00,59.4,40.7,30.09,ESE,110,0.0,0.0,50,0.00,,,0.00,Wunderground v.1.15,2013-02-12 23:40:00,
2013-02-12 15:50:00,59.4,40.7,30.09,SE,138,0.0,0.0,50,0.00,,,0.00,Wunderground v.1.15,2013-02-12 23:50:00,
2013-02-12 16:00:00,59.4,41.3,30.09,East,82,0.0,0.0,51,0.00,,,0.00,Wunderground v.1.15,2013-02-13 00:00:00,
2013-02-12 16:10:00,59.3,41.7,30.08,ESE,107,0.0,2.0,52,0.00,,,0.00,Wunderground v.1.15,2013-02-13 00:10:00,
2013-02-12 16:16:00,59.3,41.7,30.09,ESE,109,0.0,2.0,52,0.00,,,0.00,Wunderground v.1.15,2013-02-13 00:16:00,
2013-02-12 16:26:00,59.0,41.4,30.09,SE,132,1.0,2.0,52,0.00,,,0.00,Wunderground v.1.15,2013-02-13 00:26:00,
2013-02-12 16:36:00,59.0,41.4,30.08,ESE,109,1.0,1.0,52,0.00,,,0.00,Wunderground v.1.15,2013-02-13 00:36:00,
2013-02-12 16:46:00,59.0,41.9,30.09,SE,130,1.0,1.0,53,0.00,,,0.00,Wunderground v.1.15,2013-02-13 00:46:00,
2013-02-12 16:56:00,58.6,42.0,30.09,SE,135,0.0,1.0,54,0.00,,,0.00,Wunderground v.1.15,2013-02-13 00:56:00,
2013-02-12 17:01:00,58.4,42.3,30.08,ESE,111,1.0,3.0,55,0.00,,,0.00,Wunderground v.1.15,2013-02-13 01:01:00,
2013-02-12 17:11:00,58.2,43.0,30.08,SSE,156,1.0,1.0,57,0.00,,,0.00,Wunderground v.1.15,2013-02-13 01:11:00,
2013-02-12 17:21:00,57.8,43.6,30.08,ENE,67,0.0,0.0,59,0.00,,,0.00,Wunderground v.1.15,2013-02-13 01:21:00,
2013-02-12 17:26:00,57.7,43.5,30.09,ENE,67,0.0,0.0,59,0.00,,,0.00,Wunderground v.1.15,2013-02-13 01:26:00,
2013-02-12 17:36:00,57.3,44.0,30.09,ENE,66,0.0,0.0,61,0.00,,,0.00,Wunderground v.1.15,2013-02-13 01:36:00,
2013-02-12 17:45:00,56.6,43.7,30.09,ENE,66,0.0,0.0,62,0.00,,,0.00,Wunderground v.1.15,2013-02-13 01:45:00,
2013-02-12 17:51:00,56.3,43.4,30.08,ENE,66,0.0,0.0,62,0.00,,,0.00,Wunderground v.1.15,2013-02-13 01:51:00,
2013-02-12 18:01:00,55.6,42.8,30.09,ENE,66,0.0,0.0,62,0.00,,,0.00,Wunderground v.1.15,2013-02-13 02:01:00,
2013-02-12 18:10:00,54.9,42.1,30.09,ENE,66,0.0,0.0,62,0.00,,,0.00,Wunderground v.1.15,2013-02-13 02:10:00,
2013-02-12 18:16:00,54.6,41.8,30.09,ENE,66,0.0,0.0,62,0.00,,,0.00,Wunderground v.1.15,2013-02-13 02:16:00,
2013-02-12 18:25:00,54.0,42.1,30.09,ESE,106,0.0,0.0,64,0.00,,,0.00,Wunderground v.1.15,2013-02-13 02:25:00,
2013-02-12 18:36:00,53.5,42.0,30.09,ESE,106,0.0,0.0,65,0.00,,,0.00,Wunderground v.1.15,2013-02-13 02:36:00,
2013-02-12 18:45:00,52.9,41.4,30.09,ESE,106,0.0,0.0,65,0.00,,,0.00,Wunderground v.1.15,2013-02-13 02:45:00,
2013-02-12 18:56:00,52.4,41.0,30.09,ESE,106,0.0,0.0,65,0.00,,,0.00,Wunderground v.1.15,2013-02-13 02:56:00,
2013-02-12 19:01:00,52.2,41.2,30.09,ESE,106,0.0,0.0,66,0.00,,,0.00,Wunderground v.1.15,2013-02-13 03:01:00,
2013-02-12 19:10:00,51.7,40.7,30.10,ESE,106,0.0,1.0,66,0.00,,,0.00,Wunderground v.1.15,2013-02-13 03:10:00,
2013-02-12 19:20:00,51.3,40.3,30.10,ESE,106,0.0,0.0,66,0.00,,,0.00,Wunderground v.1.15,2013-02-13 03:20:00,
2013-02-12 19:30:00,50.8,40.6,30.10,ESE,106,0.0,0.0,68,0.00,,,0.00,Wunderground v.1.15,2013-02-13 03:30:00,
2013-02-12 19:40:00,50.4,41.0,30.10,ESE,106,0.0,0.0,70,0.00,,,0.00,Wunderground v.1.15,2013-02-13 03:40:00,
2013-02-12 19:50:00,50.0,41.0,30.11,ESE,106,0.0,0.0,71,0.00,,,0.00,Wunderground v.1.15,2013-02-13 03:50:00,
2013-02-12 20:00:00,49.5,40.8,30.11,ESE,106,0.0,0.0,72,0.00,,,0.00,Wunderground v.1.15,2013-02-13 04:00:00,
2013-02-12 20:05:00,49.3,40.7,30.11,ESE,106,0.0,0.0,72,0.00,,,0.00,Wunderground v.1.15,2013-02-13 04:05:00,
2013-02-12 20:15:00,49.0,40.7,30.11,ESE,106,0.0,0.0,73,0.00,,,0.00,Wunderground v.1.15,2013-02-13 04:15:00,
2013-02-12 20:25:00,48.5,39.9,30.11,ESE,106,0.0,0.0,72,0.00,,,0.00,Wunderground v.1.15,2013-02-13 04:25:00,
2013-02-12 20:35:00,48.1,40.2,30.11,ESE,106,0.0,0.0,74,0.00,,,0.00,Wunderground v.1.15,2013-02-13 04:35:00,
2013-02-12 20:45:00,47.8,39.6,30.11,ESE,106,0.0,0.0,73,0.00,,,0.00,Wunderground v.1.15,2013-02-13 04:45:00,
2013-02-12 20:55:00,47.5,39.6,30.12,ESE,106,0.0,0.0,74,0.00,,,0.00,Wunderground v.1.15,2013-02-13 04:55:00,
2013-02-12 21:00:00,47.3,39.4,30.12,ESE,106,0.0,0.0,74,0.00,,,0.00,Wunderground v.1.15,2013-02-13 05:00:00,
2013-02-12 21:05:00,47.1,39.2,30.12,ESE,106,0.0,0.0,74,0.00,,,0.00,Wunderground v.1.15,2013-02-13 05:05:00,
2013-02-12 21:11:00,46.9,39.0,30.12,ESE,106,0.0,0.0,74,0.00,,,0.00,Wunderground v.1.15,2013-02-13 05:11:00,
2013-02-12 21:21:00,46.3,38.8,30.12,ESE,106,0.0,0.0,75,0.00,,,0.00,Wunderground v.1.15,2013-02-13 05:21:00,
2013-02-12 21:31:00,45.8,38.7,30.12,ESE,106,0.0,0.0,76,0.00,,,0.00,Wunderground v.1.15,2013-02-13 05:31:00,
2013-02-12 21:41:00,45.5,38.7,30.12,ESE,106,0.0,0.0,77,0.00,,,0.00,Wunderground v.1.15,2013-02-13 05:41:00,
2013-02-12 21:51:00,45.2,38.4,30.13,ESE,106,0.0,0.0,77,0.00,,,0.00,Wunderground v.1.15,2013-02-13 05:51:00,
2013-02-12 22:01:00,44.9,38.1,30.13,ESE,106,0.0,0.0,77,0.00,,,0.00,Wunderground v.1.15,2013-02-13 06:01:00,
2013-02-12 22:11:00,44.6,37.8,30.13,ESE,106,0.0,0.0,77,0.00,,,0.00,Wunderground v.1.15,2013-02-13 06:11:00,
2013-02-12 22:21:00,44.2,37.4,30.13,ESE,106,0.0,0.0,77,0.00,,,0.00,Wunderground v.1.15,2013-02-13 06:21:00,
2013-02-12 22:31:00,43.9,37.5,30.12,ESE,106,0.0,0.0,78,0.00,,,0.00,Wunderground v.1.15,2013-02-13 06:31:00,
2013-02-12 22:41:00,43.7,37.3,30.12,ESE,106,0.0,0.0,78,0.00,,,0.00,Wunderground v.1.15,2013-02-13 06:41:00,
2013-02-12 22:46:00,43.6,37.5,30.12,ESE,106,0.0,0.0,79,0.00,,,0.00,Wunderground v.1.15,2013-02-13 06:46:00,
2013-02-12 22:56:00,43.4,37.3,30.12,ESE,106,0.0,0.0,79,0.00,,,0.00,Wunderground v.1.15,2013-02-13 06:56:00,
2013-02-12 23:01:00,43.2,37.1,30.12,ESE,106,0.0,0.0,79,0.00,,,0.00,Wunderground v.1.15,2013-02-13 07:01:00,
2013-02-12 23:11:00,43.0,36.9,30.13,ESE,106,0.0,0.0,79,0.00,,,0.00,Wunderground v.1.15,2013-02-13 07:11:00,
2013-02-12 23:21:00,42.7,36.6,30.13,ESE,106,0.0,0.0,79,0.00,,,0.00,Wunderground v.1.15,2013-02-13 07:21:00,
2013-02-12 23:31:00,42.5,36.8,30.13,ESE,106,0.0,0.0,80,0.00,,,0.00,Wunderground v.1.15,2013-02-13 07:31:00,
2013-02-12 23:40:00,42.2,36.5,30.13,ESE,106,0.0,0.0,80,0.00,,,0.00,Wunderground v.1.15,2013-02-13 07:40:00,
2013-02-12 23:50:00,41.9,36.2,30.13,ESE,106,0.0,0.0,80,0.00,,,0.00,Wunderground v.1.15,2013-02-13 07:50:00,
2013-02-12 23:55:00,41.8,36.1,30.13,ESE,106,0.0,0.0,80,0.00,,,0.00,Wunderground v.1.15,2013-02-13 07:55:00,